Showing default

GALILEO 10 (206), 40890

Orbit data source: Space-Track

GALILEO 10 (206), 40890 is a payload satellite owned by GNSS Agency (ESA) that was launched on Fri, 11 Sep 2015 UTC via a SOYUZ-ST-B launch vehicle from the French Guiana (FRGUI). Payload-class satellites include a variety of spacecraft equipped with specific instruments for various scientific and technological missions. These include communications satellites like Starlink; space stations such as the ISS; scientific satellites like the Hubble; Earth observation satellites from companies like Planet Labs, Umbra, and HawkEye 360; GPS; miniature CubeSats for education and research; and military/defense satellites.

Loading next visibility...
Identifier
40890, 2015-045B
Orbit
Active
Last TLE update
4 days ago
Origin
Manufacturer
OHB
Mission
Operational Civil Navigation
Bus & Motor
GALILEOSAT, AOCS
Mass
733 kg wet, 660 kg dry
Launch date (UTC)
2015-09-11 (10 years ago)
Launch vehicle
SOYUZ-ST-B
Launch site
French Guiana (FRGUI)
Object type
Payload
Rocket body
Debris
Shape & HBR
Box + 2 Pan, 14.71 m
Radar Cross Section
9.223 m², Large (>1 m²)

Expand to show TLE details & history

TLE from 4 days ago
0 GALILEO 10 (206)
1 40890U 15045B   25185.61245655  .00000052  00000-0  00000-0 0  9998
2 40890  55.0593 231.2005 0001955 302.9295  57.1346  1.70473909 61129
Epoch: 2025-07-04T14:41Z
TLE epoch observation values (Epoch: 2025-07-04T14:41:56.245Z)
Latitude
-0.00002°
Longitude
87.86751°
Altitude
23,219.314 km
Speed
3.67 km/s
True Right ascension
15h 24m 51s
True Declination
0° 00' 00"
Sunlit
Object was in daylight at epoch
Visualization orbit readout
Latitude
23.64963°
Longitude
-110.03171°
Altitude
23,227.886 km
Speed
3.669 km/s
Apparent Right ascension
02h 54m 47s
Apparent Declination
16° 27' 38"
Sunlit
Object is in daylight
Visualization observer readout
Local Sidereal Time
21:09:30
Azimuth
79.474° E
Elevation
13.24°
Doppler factor
1
Orbital elements
Apogee altitude
23,227.987 km
Perigee altitude
23,216.413 km
Semi-major axis
29,600.337 km
Eccentricity
0.0002
Inclination
55.0593°
RAAN
231.2005°
Arg. of periapsis
302.9295°
True anomaly
Unknown
Mean anomaly
57.1346°
Eccentric anomaly
Unknown
Mean motion
0.42619 °/min
Orbital period
844.7 mins
BSTAR
0
Loading maneuver chart data...
Loading SW <> Apogee altitude chart data...
Loading historical data...
Loading historical data...
Loading historical data...
Loading historical data...
Loading historical data...
Loading historical data...
Loading historical data...
Other satellites on launch #45 in the year 2015 (2015-09-11 UTC)

GALILEO 10 (206) Visibility forecast

Observer location: undefined°, undefined°

Span
Click to sort rows by Start time (UTC) header in descending order
Start Az.
Max El. time (UTC)
Max El. Az.
Max El.
End time (UTC)
End Az.
13 mins2025-07-08 09:03:41.707Z79.496° E2025-07-08 09:03:41.707Z79.496° E12.893°2025-07-08 09:16:41.707Z83.147° E
100 mins2025-07-09 07:23:41.707Z251.733° W2025-07-09 09:03:41.707Z283.11° WNW29.413°2025-07-09 09:03:41.707Z283.11° WNW
|